Location: Julian California
(33.0790°N, 116.6010°W)
Time: 15:56:08
(UTC-07:00)

Cosmos 1674 - Pass Details

Date: 14 June 2018
Orbit: 498 x 519 km, 82.5° (Epoch: 20 June)

Event Time Altitude Azimuth Distance (km) Brightness Sun altitude
Exits shadow 22:27:56 23° 39° (NE) 1,111 4.5 -24.6°
Drops below altitude 10° 22:29:39 10° 23° (NNE) 1,728 5.7 -24.8°
Sets 22:31:52 0° 16° (NNE) 2,622 6.8 -25.1°
